JE4YKI-13 Weather Reports


time (UTC)temp
C
wind
direction
speed
KPH
gust
KPH
rain 1hr
cm
rain 24hr
cm
rain mn
cm
humidity
%
barometer
mb
20260505030947 20 126 0.0 0.0 0.00 0.00 0.00 41 1019.8
20260505025946 20 73 0.0 0.0 0.00 0.00 0.00 42 1019.8
20260505024946 20 124 0.0 0.0 0.00 0.00 0.00 45 1019.9
20260505023946 20 130 0.0 0.0 0.00 0.00 0.00 46 1020.1
20260505022945 20 75 0.0 0.0 0.00 0.00 0.00 48 1020.2
20260505020945 18 30 0.0 0.0 0.00 0.00 0.00 54 1020.3
20260505015943 18 117 0.0 0.0 0.00 0.00 0.00 58 1020.3
20260505014943 17 83 0.0 0.0 0.00 0.00 0.00 58 1020.4
20260505013941 18 114 0.0 0.0 0.00 0.00 0.00 58 1020.5
20260505012941 17 90 0.0 0.0 0.00 0.00 0.00 60 1020.5
20260505011941 17 136 0.0 0.0 0.00 0.00 0.00 60 1020.5
20260505010940 17 117 0.0 0.0 0.00 0.00 0.00 60 1020.5
20260505005940 16 66 0.0 0.0 0.00 0.00 0.00 64 1020.4
20260505004939 16 84 0.0 0.0 0.00 0.00 0.00 63 1020.3
20260505003939 16 101 0.0 0.0 0.00 0.00 0.00 65 1020.3
20260505002939 15 127 0.0 0.0 0.00 0.00 0.00 66 1020.3
20260505001939 15 85 0.0 0.0 0.00 0.00 0.00 68 1020.3
20260505000938 15 64 0.0 0.0 0.00 0.00 0.00 67 1020.2
20260504235938 15 75 0.0 0.0 0.00 0.00 0.00 69 1020.3
20260504234937 14 102 0.0 0.0 0.00 0.00 0.00 70 1020.3
20260504233937 14 150 0.0 0.0 0.00 0.00 0.00 71 1020.3
20260504232936 14 117 0.0 0.0 0.00 0.00 0.00 71 1020.5
20260504231936 14 98 0.0 0.0 0.00 0.00 0.00 69 1020.4
20260504230936 14 124 0.0 0.0 0.00 0.00 0.00 70 1020.4
20260504225935 13 117 0.0 0.0 0.00 0.00 0.00 71 1020.3
20260504224935 13 110 0.0 0.0 0.00 0.00 0.00 72 1020.3
20260504223935 13 127 0.0 0.0 0.00 0.00 0.00 72 1020.4
20260504222934 13 116 0.0 0.0 0.00 0.00 0.00 73 1020.3
20260504221934 13 117 0.0 0.0 0.00 0.00 0.00 76 1020.3
20260504220932 12 13 0.0 0.0 0.00 0.00 0.00 78 1020.3
20260504215932 12 16 0.0 0.0 0.00 0.00 0.00 80 1020.3
20260504214931 11 72 0.0 0.0 0.00 0.00 0.00 80 1020.1
20260504213931 11 300 0.0 0.0 0.00 0.00 0.00 83 1020.0
20260504212931 10 272 0.0 0.0 0.00 0.00 0.00 83 1019.9
20260504211930 10 287 0.0 0.0 0.00 0.00 0.00 85 1019.7
20260504210930 10 278 0.0 0.0 0.00 0.00 0.00 85 1019.7
20260504205930 9 302 0.0 0.0 0.00 0.00 0.00 87 1019.6
20260504204930 9 311 0.0 0.0 0.00 0.00 0.00 90 1019.5
20260504203929 8 281 0.0 0.0 0.00 0.00 0.00 92 1019.5
20260504202928 8 281 0.0 0.0 0.00 0.00 0.00 92 1019.4
20260504201928 8 295 0.0 0.0 0.00 0.00 0.00 91 1019.2
20260504200928 8 277 0.0 0.0 0.00 0.00 0.00 90 1019.2
20260504195927 8 281 0.0 0.0 0.00 0.00 0.00 89 1019.0
20260504194927 8 129 0.0 0.0 0.00 0.00 0.00 87 1019.0
20260504193927 9 129 0.0 0.0 0.00 0.00 0.00 87 1018.8
20260504192926 10 113 0.0 0.0 0.00 0.00 0.00 86 1018.6
20260504191926 10 24 0.0 0.0 0.00 0.00 0.00 85 1018.6
20260504190925 10 286 0.0 0.0 0.00 0.00 0.00 84 1018.4
20260504184925 10 280 0.0 0.0 0.00 0.00 0.00 85 1018.3
20260504183925 10 307 0.0 0.0 0.00 0.00 0.00 85 1018.2
20260504182924 10 297 3.2 0.0 0.00 0.00 0.00 85 1018.2
20260504181924 10 256 0.0 0.0 0.00 0.00 0.00 84 1018.1
20260504180923 10 278 0.0 0.0 0.00 0.00 0.00 84 1018.1
20260504175923 10 280 0.0 0.0 0.00 0.00 0.00 84 1017.9
20260504174922 10 336 0.0 0.0 0.00 0.00 0.00 84 1017.7
20260504173922 10 295 0.0 0.0 0.00 0.00 0.00 84 1017.6
20260504172922 10 267 0.0 0.0 0.00 0.00 0.00 85 1017.5
20260504171921 10 304 0.0 0.0 0.00 0.00 0.00 87 1017.4
20260504170921 10 281 0.0 0.0 0.00 0.00 0.00 86 1017.4
20260504150916 11 294 0.0 0.0 0.00 0.00 0.00 82 1017.1
20260504140913 11 285 0.0 0.0 0.00 0.00 0.00 81 1017.3
20260504081852 16 320 3.2 0.0 0.00 0.00 0.00 53 1012.9
20260504080851 16 25 4.8 0.0 0.00 0.00 0.00 50 1012.8
20260504045843 18 238 4.8 0.0 0.00 0.00 0.00 45 1010.3
20260504044845 17 327 4.8 0.0 0.00 0.00 0.00 47 1010.4
20260504043842 17 308 6.4 0.0 0.00 0.00 0.00 46 1010.3
20260504042843 17 266 11.3 0.0 0.00 0.00 0.00 47 1010.3
20260504041841 17 284 6.4 0.0 0.00 0.00 0.00 47 1010.1
20260504040841 17 259 12.9 0.0 0.00 0.00 0.00 45 1010.0
20260504035841 17 17 3.2 0.0 0.00 0.00 0.00 44 1010.0
20260504034839 18 313 4.8 0.0 0.00 0.00 0.00 43 1009.7
20260504033952 18 199 9.7 0.0 0.00 0.00 0.00 43 1009.5
20260504032838 17 284 11.3 0.0 0.00 0.00 0.00 44 1009.6